[[{"header":{"parameterUnit":"m.s-1","parameterCategory":1,"la1":30.2991,"la2":30.254,"lo1":-89.0895,"lo2":-89.0444,"dy":0.0017,"dx":0.0017,"nx":28,"ny":28,"refTime":"2024-04-30T03:00:00:Z","depth":0,"parameterNumber":2,"parameterNumberName":"U-component_of_WINDS"},"data":[0,0,0,0,0,0,0,0,0,0,0,0,0,0,0,0,0,0,0,0,0,0,0,0,0,0,0,0,0,0,0,0,0,0,0,0,0,0,0,0,0,0,0,0,0,0,0,0,0,0,0,0,0,0,0,0,0,0,-0.2754,-0.2754,0,-0.2692,-0.2691,-0.2691,-0.2669,-0.267,-0.267,-0.267,-0.2606,-0.2604,-0.2602,0,0,0,0,0,0,0,0,0,0,0,0,0,-0.2855,-0.2853,-0.2754,-0.2754,-0.2753,-0.2692,-0.2691,-0.269,-0.2669,-0.267,-0.267,-0.267,-0.2606,-0.2604,-0.2602,0,0,0,0,0,0,0,0,0,0,0,0,0,-0.2804,-0.2853,-0.2755,-0.2735,-0.2733,-0.2692,-0.2691,-0.269,-0.2669,-0.267,-0.267,-0.267,-0.2607,-0.2604,-0.2601,-0.2576,0,0,-0.2592,-0.2591,0,0,0,0,0,0,0,0,-0.2807,-0.28,-0.2739,-0.2736,-0.2734,-0.2689,-0.2703,-0.2652,-0.2669,-0.2693,-0.267,-0.2671,-0.2633,-0.2628,-0.2615,-0.2573,-0.257,-0.2592,-0.259,-0.2589,-0.2588,0,0,0,0,0,0,0,-0.281,-0.2803,-0.273,-0.2738,-0.2735,-0.2729,-0.2722,-0.2693,-0.2662,-0.2691,-0.269,-0.2682,-0.2632,-0.2618,-0.2614,-0.2569,-0.2592,-0.259,-0.2588,-0.2587,-0.2502,-0.2501,0,0,0,0,0,0,-0.2817,-0.2806,-0.2732,-0.2728,-0.2772,-0.2727,-0.272,-0.2703,-0.2662,-0.2656,-0.2682,-0.2682,-0.2623,-0.2617,-0.2611,-0.2578,-0.2589,-0.2586,-0.2585,-0.2502,-0.2502,-0.2501,0,0,0,0,0,0,-0.282,-0.2811,-0.2734,-0.2766,-0.2756,-0.2725,-0.2706,-0.2701,-0.2688,-0.2655,-0.2649,-0.2674,-0.2623,-0.2616,-0.2585,-0.2576,-0.2585,-0.2582,-0.2503,-0.2502,-0.2501,-0.2512,0,0,0,0,0,0,-0.2823,-0.2812,-0.2802,-0.2766,-0.2755,-0.2709,-0.2706,-0.27,-0.2683,-0.2682,-0.2646,-0.2641,-0.2623,-0.2589,-0.2582,-0.2572,-0.258,-0.2503,-0.2503,-0.2502,-0.2513,-0.2512,-0.2512,0,0,0,0,0,-0.2826,-0.2807,-0.2801,-0.2793,-0.2741,-0.2708,-0.2701,-0.2681,-0.2682,-0.2672,-0.2651,-0.2642,-0.2578,-0.2586,-0.2578,-0.2567,-0.2504,-0.2503,-0.2502,-0.2513,-0.2512,-0.2512,0,0,0,0,0,0,-0.2843,-0.2802,-0.2795,-0.2764,-0.274,-0.2705,-0.2691,-0.2681,-0.2656,-0.2656,-0.2632,-0.2624,-0.2595,-0.2578,-0.2588,-0.254,-0.2541,-0.2538,-0.2552,-0.2551,-0.2551,-0.2555,-0.2578,0,0,0,0,0,-0.2843,-0.2819,-0.2785,-0.2761,-0.2749,-0.2722,-0.2707,-0.2694,-0.2667,-0.2657,-0.2634,-0.2608,-0.2582,-0.2566,-0.254,-0.251,-0.2502,-0.2499,-0.2498,-0.2498,-0.2496,-0.2478,-0.2476,-0.2497,-0.2497,-0.2497,0,0,-0.2843,-0.2818,-0.2804,-0.2764,-0.2743,-0.2719,-0.2714,-0.2689,-0.2671,-0.2653,-0.2622,-0.2605,-0.2575,-0.2544,-0.2529,-0.2529,-0.2488,-0.2496,-0.2497,-0.2494,-0.2477,-0.2475,-0.2473,-0.2497,-0.2497,-0.2497,0,0,-0.283,-0.2809,-0.2787,-0.2766,-0.2735,-0.2717,-0.2712,-0.2678,-0.2665,-0.2634,-0.2621,-0.2599,-0.2555,-0.2534,-0.2518,-0.2497,-0.2488,-0.2489,-0.2487,-0.247,-0.2468,-0.2467,-0.2459,-0.2457,-0.2487,-0.2487,-0.2487,0,-0.2834,-0.2797,-0.2776,-0.2752,-0.2734,-0.2717,-0.2695,-0.2676,-0.2638,-0.2626,-0.2626,-0.2571,-0.2549,-0.2514,-0.2509,-0.2496,-0.2489,-0.2493,-0.247,-0.2468,-0.2467,-0.2459,-0.2456,-0.2488,-0.2488,-0.2488,-0.2488,0,-0.2803,-0.2778,-0.2764,-0.2727,-0.2708,-0.2685,-0.266,-0.2644,-0.2632,-0.2614,-0.2583,-0.2557,-0.2525,-0.2516,-0.2504,-0.2478,-0.2479,-0.2475,-0.2475,-0.2465,-0.2458,-0.2455,-0.2488,-0.2488,-0.2488,-0.2488,0,0,-0.2799,-0.2752,-0.2747,-0.273,-0.2694,-0.2674,-0.265,-0.262,-0.2606,-0.258,-0.2559,-0.2522,-0.2518,-0.25,-0.2486,-0.2471,-0.2456,-0.2469,-0.2468,-0.2467,-0.2426,-0.2429,-0.2426,-0.245,-0.2449,-0.2449,-0.2428,0,-0.2782,-0.2737,-0.2718,-0.2682,-0.2659,-0.2642,-0.2621,-0.2597,-0.258,-0.2557,-0.2538,-0.2512,-0.2509,-0.2498,-0.2482,-0.2461,-0.2448,-0.2463,-0.243,-0.2429,-0.2438,-0.2422,-0.2425,-0.2407,-0.2425,-0.2425,-0.2424,0,-0.2755,-0.273,-0.2692,-0.2659,-0.2648,-0.263,-0.26,-0.2579,-0.2551,-0.2539,-0.2519,-0.2505,-0.2479,-0.2481,-0.2444,-0.2455,-0.244,-0.2428,-0.2427,-0.2423,-0.2426,-0.2417,-0.2401,-0.2398,-0.242,-0.242,-0.242,0,-0.2756,-0.2712,-0.2684,-0.267,-0.2631,-0.2618,-0.2601,-0.2574,-0.2557,-0.2531,-0.2519,-0.2491,-0.2475,-0.2453,-0.2432,-0.2436,-0.2398,-0.2398,-0.2387,-0.2387,-0.2379,-0.238,-0.236,-0.2371,-0.2371,-0.2371,-0.2371,0,-0.2738,-0.2716,-0.2683,-0.2666,-0.264,-0.2618,-0.2593,-0.2575,-0.2551,-0.2529,-0.2513,-0.2494,-0.2467,-0.2444,-0.2428,-0.24,-0.2393,-0.2383,-0.2378,-0.2384,-0.2385,-0.2374,-0.2374,-0.237,-0.237,-0.237,-0.237,0,-0.2735,-0.2712,-0.268,-0.2645,-0.2636,-0.2619,-0.2589,-0.2572,-0.2554,-0.2527,-0.2519,-0.2491,-0.2463,-0.244,-0.2403,-0.2392,-0.2363,-0.2358,-0.2372,-0.237,-0.236,-0.2361,-0.2331,-0.2326,-0.2341,-0.2341,-0.2341,0,-0.2725,-0.2707,-0.2671,-0.2655,-0.2639,-0.2614,-0.2596,-0.2574,-0.2556,-0.2523,-0.2509,-0.248,-0.2456,-0.2412,-0.2388,-0.236,-0.2354,-0.2345,-0.235,-0.2356,-0.2353,-0.2355,-0.2353,-0.2345,-0.2345,-0.2345,-0.2345,0,-0.271,-0.2699,-0.2675,-0.2646,-0.2625,-0.2602,-0.2578,-0.2566,-0.2539,-0.252,-0.2491,-0.2472,-0.2435,-0.2406,-0.2375,-0.2357,-0.2347,-0.2344,-0.234,-0.2345,-0.2354,-0.2349,-0.2371,-0.2345,-0.2345,-0.2345,-0.2345,-0.2345,-0.2702,-0.2686,-0.2658,-0.2631,-0.261,-0.2588,-0.2569,-0.2549,-0.2525,-0.2492,-0.2481,-0.2451,-0.2423,-0.2381,-0.2363,-0.234,-0.2339,-0.2333,-0.2331,-0.233,-0.2331,-0.2358,-0.2334,-0.2334,-0.2334,-0.2334,-0.2334,0,-0.2686,-0.2667,-0.2643,-0.2609,-0.2588,-0.258,-0.2553,-0.2536,-0.251,-0.2485,-0.2461,-0.2428,-0.24,-0.2374,-0.2344,-0.233,-0.2325,-0.2323,-0.2324,-0.232,-0.2333,-0.234,-0.2329,-0.2329,-0.2329,-0.2329,-0.2329,-0.2329,-0.2676,-0.2647,-0.2633,-0.2594,-0.2575,-0.2546,-0.2531,-0.2511,-0.2491,-0.2454,-0.2431,-0.2414,-0.2389,-0.2357,-0.2331,-0.2324,-0.2314,-0.2314,-0.2306,-0.2318,-0.2319,-0.232,-0.2326,-0.2312,-0.2312,-0.2294,-0.2294,-0.2294]},{"header":{"parameterUnit":"m.s-1","parameterCategory":1,"la1":30.2991,"la2":30.254,"lo1":-89.0895,"lo2":-89.0444,"dy":0.0017,"dx":0.0017,"nx":28,"ny":28,"refTime":"2024-04-30T03:00:00:Z","depth":0,"parameterNumber":3,"parameterNumberName":"V-component_of_WINDS"},"data":[0,0,0,0,0,0,0,0,0,0,0,0,0,0,0,0,0,0,0,0,0,0,0,0,0,0,0,0,0,0,0,0,0,0,0,0,0,0,0,0,0,0,0,0,0,0,0,0,0,0,0,0,0,0,0,0,0,0,2.6542,2.6542,0,2.6526,2.6526,2.6526,2.6485,2.6484,2.6484,2.6483,2.6468,2.6469,2.6469,0,0,0,0,0,0,0,0,0,0,0,0,0,2.6538,2.6539,2.6542,2.6542,2.6542,2.6526,2.6526,2.6526,2.6485,2.6484,2.6483,2.6482,2.6468,2.6469,2.6469,0,0,0,0,0,0,0,0,0,0,0,0,0,2.6533,2.6539,2.6542,2.652,2.6517,2.6527,2.6526,2.6526,2.6486,2.6484,2.6483,2.6482,2.6468,2.6468,2.6469,2.6499,0,0,2.6471,2.6471,0,0,0,0,0,0,0,0,2.6534,2.6533,2.6523,2.6521,2.6519,2.6506,2.652,2.6517,2.6486,2.6498,2.6483,2.6481,2.6482,2.6481,2.6481,2.6499,2.6498,2.6471,2.6472,2.6472,2.6472,0,0,0,0,0,0,0,2.6534,2.6534,2.6536,2.6523,2.652,2.6511,2.6509,2.6519,2.6498,2.6497,2.6494,2.6492,2.6481,2.6481,2.6481,2.6498,2.6471,2.6472,2.6472,2.6472,2.6539,2.654,0,0,0,0,0,0,2.6537,2.6534,2.6536,2.6535,2.6523,2.6512,2.6509,2.6512,2.6497,2.6494,2.6493,2.649,2.648,2.648,2.648,2.6515,2.6472,2.6472,2.6473,2.6538,2.6539,2.6541,0,0,0,0,0,0,2.6537,2.6538,2.6537,2.6534,2.6533,2.6513,2.6516,2.6512,2.6512,2.6495,2.6491,2.6498,2.6479,2.6479,2.6495,2.6514,2.6473,2.6473,2.6536,2.6538,2.654,2.6584,0,0,0,0,0,0,2.6538,2.6538,2.6549,2.6535,2.6534,2.6552,2.6517,2.6513,2.6513,2.6509,2.6498,2.6494,2.6478,2.6494,2.6495,2.6514,2.6474,2.6534,2.6537,2.654,2.6581,2.6588,2.6593,0,0,0,0,0,2.6538,2.6562,2.655,2.655,2.6547,2.6553,2.6552,2.6533,2.6515,2.6526,2.6515,2.6495,2.6511,2.6496,2.6497,2.6516,2.6533,2.6536,2.6539,2.6578,2.6586,2.6593,0,0,0,0,0,0,2.658,2.656,2.6546,2.6567,2.6562,2.6546,2.6559,2.6542,2.6542,2.6539,2.6515,2.6512,2.6532,2.6525,2.6508,2.6545,2.6519,2.6522,2.6548,2.6556,2.6562,2.6563,2.6474,0,0,0,0,0,2.6592,2.6598,2.658,2.6601,2.6599,2.658,2.6582,2.6567,2.6561,2.6559,2.6549,2.6544,2.6548,2.6551,2.6554,2.658,2.6577,2.6593,2.6599,2.6604,2.6608,2.6622,2.6629,2.6551,2.6551,2.6551,0,0,2.6616,2.6606,2.6612,2.6609,2.6603,2.6611,2.6578,2.6587,2.6593,2.656,2.6574,2.6567,2.656,2.6581,2.659,2.6576,2.6629,2.6608,2.6613,2.6613,2.6626,2.6633,2.6639,2.6553,2.6553,2.6553,0,0,2.6665,2.6658,2.6674,2.6669,2.666,2.6648,2.6652,2.6638,2.6632,2.6645,2.6621,2.6628,2.6635,2.6631,2.6631,2.6678,2.666,2.6679,2.6712,2.6725,2.6731,2.6736,2.6754,2.676,2.6683,2.6683,2.6683,0,2.6697,2.6707,2.6684,2.6695,2.6695,2.6665,2.6682,2.6678,2.6672,2.6672,2.6657,2.6666,2.6659,2.6679,2.6691,2.6691,2.6695,2.6681,2.6732,2.6737,2.6742,2.6758,2.6765,2.6686,2.6685,2.6685,2.6685,0,2.6746,2.6754,2.6768,2.6761,2.6763,2.6776,2.6757,2.6761,2.6746,2.6735,2.6749,2.674,2.6741,2.6744,2.673,2.6762,2.6754,2.6736,2.671,2.6752,2.6767,2.6773,2.6689,2.6688,2.6687,2.6687,0,0,2.6822,2.6803,2.6809,2.6806,2.6794,2.68,2.6812,2.6812,2.6816,2.6813,2.6823,2.683,2.6813,2.6812,2.6797,2.6809,2.6847,2.6789,2.6788,2.6801,2.6883,2.6897,2.6905,2.6835,2.6836,2.6837,2.6884,0,2.6868,2.6888,2.6868,2.6892,2.6899,2.6871,2.6882,2.6876,2.6866,2.6871,2.686,2.6865,2.6842,2.6841,2.6852,2.6841,2.6864,2.6837,2.6845,2.6846,2.6848,2.6912,2.6928,2.6972,2.6889,2.689,2.6891,0,2.6925,2.6924,2.6948,2.6935,2.6937,2.6947,2.6946,2.695,2.6944,2.6936,2.6935,2.6916,2.6928,2.6902,2.6919,2.6901,2.6903,2.6898,2.6899,2.69,2.6871,2.6915,2.6986,2.6993,2.69,2.6899,2.6898,0,2.6979,2.6983,2.6998,2.6996,2.6981,2.6989,2.6984,2.6975,2.6977,2.6976,2.6976,2.6977,2.6977,2.6978,2.6961,2.6944,2.698,2.6952,2.6974,2.6975,2.6983,2.6983,2.7056,2.6984,2.6984,2.6984,2.6984,0,2.7033,2.7049,2.7022,2.7031,2.7049,2.7026,2.7044,2.7036,2.7029,2.7037,2.7012,2.702,2.6996,2.7002,2.6988,2.7004,2.7005,2.6999,2.6995,2.7001,2.7002,2.7003,2.7,2.6985,2.6985,2.6985,2.6984,0,2.7096,2.7078,2.7093,2.7078,2.7074,2.7088,2.7075,2.7083,2.7071,2.7081,2.7083,2.7064,2.7069,2.7052,2.7054,2.7045,2.7069,2.706,2.7071,2.7068,2.7091,2.709,2.7167,2.7177,2.7099,2.7099,2.71,0,2.7132,2.7144,2.7129,2.7133,2.7128,2.7133,2.7135,2.7113,2.7115,2.7108,2.7118,2.7121,2.7122,2.7132,2.7119,2.7121,2.7112,2.7139,2.7112,2.7118,2.7113,2.7113,2.7114,2.7145,2.7146,2.7147,2.7148,0,2.7198,2.7189,2.7191,2.719,2.7192,2.7191,2.7188,2.7192,2.7168,2.7172,2.7177,2.7178,2.718,2.7184,2.7183,2.7178,2.7159,2.7156,2.7161,2.7168,2.7174,2.7172,2.7087,2.7154,2.7154,2.7153,2.7153,2.7153,2.7249,2.7259,2.725,2.7253,2.7249,2.7246,2.7253,2.7242,2.7246,2.7245,2.7232,2.724,2.7233,2.723,2.7226,2.7232,2.722,2.7227,2.7229,2.7231,2.7236,2.7173,2.7232,2.7232,2.7231,2.7231,2.7231,0,2.7315,2.7308,2.7311,2.7307,2.731,2.7291,2.7287,2.7291,2.7297,2.7292,2.7294,2.73,2.7303,2.729,2.7292,2.7299,2.7291,2.73,2.73,2.7299,2.7246,2.7242,2.7307,2.7307,2.7307,2.7307,2.7307,2.7307,2.7349,2.7364,2.7354,2.7366,2.7359,2.7366,2.7365,2.7363,2.7358,2.7366,2.7368,2.7359,2.7351,2.7352,2.7355,2.7351,2.7353,2.7366,2.7359,2.731,2.7303,2.7296,2.7291,2.7366,2.7366,2.7411,2.7412,2.7412]}]]